AKDT,Max TemperatureF,Mean TemperatureF,Min TemperatureF,Max Dew PointF,MeanDew PointF,Min DewpointF,Max Humidity, Mean Humidity, Min Humidity, Max Sea Level PressureIn, Mean Sea Level PressureIn, Min Sea Level PressureIn, Max VisibilityMiles, Mean VisibilityMiles, Min VisibilityMiles, Max Wind SpeedMPH, Mean Wind SpeedMPH, Max Gust SpeedMPH,PrecipitationIn, CloudCover, Events, WindDirDegrees
2013-4-1,39,31,25,24,20,16,78,65,48,30.09,30.00,29.94,10,10,10,8,5,,0.00,3,,318
2013-4-2,42,31,21,22,17,12,78,57,38,30.17,30.11,30.02,10,10,10,15,7,,0.00,1,,54
2013-4-3,43,34,26,23,18,14,67,52,37,30.24,30.21,30.18,10,10,10,12,8,,0.00,1,,32
2013-4-4,39,30,24,18,9,0,77,43,23,30.20,29.99,29.75,10,10,10,24,7,38,0.00,0,,55
2013-4-5,34,28,21,11,3,-1,55,35,24,29.73,29.58,29.49,10,10,10,21,12,30,0.00,1,,34
2013-4-6,28,24,21,25,19,2,100,80,35,29.50,29.46,29.43,10,4,0,18,7,24,0.13,8,Fog-Snow,272
2013-4-7,24,17,8,23,17,5,93,83,63,29.78,29.64,29.50,10,3,0,8,3,,0.13,8,Fog-Snow,263
2013-4-8,17,10,5,14,8,0,92,84,71,29.78,29.57,29.27,10,2,0,12,3,,0.26,8,Fog-Snow,204
2013-4-9,23,18,12,13,9,3,93,76,44,29.43,29.17,29.08,10,4,0,7,2,,0.16,8,Fog-Snow,202
2013-4-10,19,14,10,9,5,-2,92,67,46,29.96,29.74,29.47,10,8,2,9,4,,0.00,7,Snow,95
2013-4-11,23,13,3,7,2,-2,87,69,40,30.10,30.04,29.95,10,8,2,9,5,,0.00,4,Snow,356
2013-4-12,21,10,-2,5,0,-7,91,63,44,30.10,30.07,30.04,10,10,10,12,3,,0.00,0,,132
2013-4-13,28,16,3,7,2,-3,73,53,36,30.41,30.26,30.11,10,10,10,8,3,,0.00,0,,152
2013-4-14,34,22,10,10,6,0,71,52,31,30.51,30.47,30.42,10,10,10,10,2,,0.00,0,,133
2013-4-15,36,24,12,11,7,4,71,47,30,30.45,30.36,30.30,10,10,10,20,5,28,0.00,2,,30
2013-4-16,36,24,12,12,9,6,74,52,35,30.29,30.17,30.08,10,10,10,10,2,,0.00,1,,196
2013-4-17,35,23,12,14,8,3,74,55,37,30.15,30.12,30.09,10,10,10,9,2,,0.00,1,,139
2013-4-18,37,24,12,17,12,6,80,59,39,30.18,30.15,30.10,10,10,10,9,3,,0.00,0,,146
2013-4-19,39,28,16,16,13,9,74,52,35,30.33,30.25,30.15,10,10,10,9,2,,0.00,0,,157
2013-4-20,44,32,21,22,14,9,63,47,26,30.41,30.39,30.34,10,10,10,20,5,23,0.00,0,,123
2013-4-21,41,32,25,26,18,12,67,54,39,30.42,30.38,30.34,10,10,10,17,9,20,0.00,3,,88
2013-4-22,46,37,28,26,23,17,72,55,40,30.53,30.47,30.41,10,10,10,14,6,,0.00,0,,80
2013-4-23,41,37,33,36,31,21,96,78,51,30.48,30.42,30.34,10,8,2,10,6,,0.14,7,Rain-Snow,45
2013-4-24,41,37,33,36,34,32,100,91,76,30.32,30.14,29.83,10,6,0,7,1,,0.03,7,Fog-Rain,221
2013-4-25,41,36,32,32,13,3,93,42,27,29.82,29.77,29.74,10,10,10,34,14,45,0.01,0,,33
2013-4-26,41,34,28,16,7,1,54,33,24,29.74,29.59,29.47,10,10,10,34,20,55,0.00,0,,10
2013-4-27,41,34,28,15,8,5,56,32,26,29.89,29.69,29.49,10,10,10,33,20,44,0.00,1,,42
2013-4-28,43,35,27,8,3,-3,37,27,19,30.13,30.01,29.91,10,10,10,29,22,39,0.00,0,,18
2013-4-29,44,34,25,19,12,8,51,40,27,30.19,30.15,30.11,10,10,10,9,4,,0.00,5,,360
2013-4-30,43,36,30,31,23,19,92,59,48,30.11,29.96,29.83,10,10,10,13,8,18,0.00,7,,56